SCP
0 0 0 0 0 0 0 0 0 0 0 0 0 0 -0 -0 -0 -0 0 0 0 0 0 0 0 0 0 0 0 0 0 0 0 0 0 0 0 0
0 0 0 0 0 0 0 0 0 0 0 0 0 0 0 0 0 -0 0 0 0 0 0 0 0 0 0 0 0 0 0 0 0 0 0 0 0 0
0 0 0 0 0 0 0 0 0 0 0 0 0 0 0 0 0 0 0 0 0 0 0 0 0 0 0 0 0 0 0 0 0 0 0 0 0 0
0 0 0 0 0 0 0 0 0 0 0 0 0 0 0 0 0 0 0 0 0 0 0 0 0 0 0 0 0 0 0 0 0 0 0 0 0 0
0 0 0 0 0 0 0 0 0 0 0 0 0 0 0 0 0 0 0 0 0 0 0 0 0 0 0 0 0 0 0 0 0 0 0 0 0 0
0 0 0 0 0 0 0 0 0 0 0 0 0 0 0 0 0 0 0 0 0 0 0 0 0 0 0 0 0 0 0 0 0 0 0 0 0 0
0 0 0 0 0 0 0 0 0 0 0 0 0 0 0 0 0 0 0 0 0 0 0 0 0 0 0 0 0 0 0 0 0 0 0 0 0 0
0 0 0 0 0 0 0 0 0 0 0 0 0 0 0 0 0 0 0 0 0 0 0 0 0 0 0 0 0 0 0 0 0 0 0 0 0 0
0 0 0 0 0 0 0 0 0 0 0 0 0 0 0 0 0 0 0 0 0 0 0 0 0 0 0 0 0 0 0 0 0 0 0 0 0 0
0 0 0 0 0 0 0 0 0 0 0 0 0 0 0 0 0 0 0 0 0 0 0 0 0 0 0 0 0 0 0 0 0 0 0 0 0 0
0 0 0 0 0 0 0 0 0 0 0 0 0 0 0 0 0 0 0 0 0 0 0 0 0 0 0 0 0 0 0 0 0 0 0 0 0 0
0 0 0 0 0 0 0 0 0 0 0 0 0 0 0 0 0 0 0 0 0 0 0 0 0 0 0 0 0 0 0 0 0 0 0 0 0 0
0 0 0 0 0 0 0 0 0 0 0 0 0 0 0 0 0 0 0 0 0 0 0 0 0 0 0 0 0 0 0 0 0 0 0 0 0 0
0 0 0 0 0 0 0 0 0 0 0 0 0 0 0 0 0 0 0 0 0 0 0 0 0 0 0 0 0 0 0 0 0 0 0 0 0 0
0 0 0 0 0 0 0 0 0 0 0 0 0 0 0 0 0 0 0 0 0 0 0 0 0 0 0 0 0 0 0 0 0 0 0 0 0 0
0 0 0 0 0 0 0 0 0 0 0 0 0 0 0 0 0 0 0 0 0 0 0 0 0 0 0 0 0 0 0 0 0 0 0 0 0 0
0 0 0 0 0 0 0 0 0 0 0 0 0 0 0 0 0 0 0 0 0 0 0 0 0 0 0 0 0 0 0 0 0 0 0 0 0 0
0 0 0 0 0 0 0 0 0 0 0 0 0 0 0 0 0 0 0 0 0 0 0 0 0 0 0 0 0 0 0 0 0 0 0 0 0 0
0 0 0 0 0 0 0 0 0 0 0 0 0 0 0 0 0 0 0 0 0 0 0 0 0 0 0 0 0 0 0 0 0 0 0 0 0 0
0 0 0 0 0 0 0 0 0 0 0 0 0 0 0 0 0 0 0 0 0 0 0 0 0 0 0 0 0 0 0 0 0 0 0 0 0 0
0 0 0 0 0 0 0 0 0 0 0 0 0 0 0 0 0 0 0 0 0 0 0 0 0 0 0 0 0 0 0 0 0 0 0 0 0 0
0 0 0 0 0 0 0 0 0 0 0 0 0 0 0 0 0 0 0 0 0 0 0 0 0 0 0 0 0 0 0 0 0 0 0 0 0 0
0 0 0 0 0 0 0 0 0 0 0 0 0 0 0 0 0 0 0 0 0 0 0 0 0 0 0 0 0 0 0 0 0 0 0 0 0 0
Wind_Speed
5 6 5 5 5 5 6 7 8 12 15 13 10 8 9 11 16 15 16 19 23 24 24 23 23 23 24 24 24 24 25 25 23 22 22 21 21 21
5 6 6 5 6 6 6 7 8 11 13 11 13 15 16 14 17 17 16 22 23 24 24 24 24 24 24 24 25 25 26 26 25 25 24 23 23 23
6 7 8 8 7 7 7 8 8 10 15 15 13 14 19 19 16 15 15 16 15 21 24 25 25 25 24 24 25 25 26 26 26 25 25 25 25 24
8 8 9 7 9 8 8 9 9 11 13 19 15 13 17 18 18 18 15 14 15 21 25 26 27 27 26 26 25 25 25 26 26 26 25 25 25 26
8 9 10 10 10 9 10 11 10 10 11 14 17 13 13 13 17 17 18 15 15 16 21 23 24 25 26 26 26 25 23 24 25 24 23 24 25 26
8 9 10 10 11 12 11 12 11 12 12 13 15 14 13 13 13 14 14 13 13 13 17 18 21 24 26 27 26 23 22 24 26 25 24 24 24 24
9 9 10 12 15 13 12 12 13 12 12 12 14 14 13 12 12 12 14 14 15 13 13 11 12 12 14 17 18 20 24 25 26 25 25 25 25 24
10 10 10 11 13 17 19 20 18 15 14 14 14 15 17 15 13 12 13 15 15 9 12 14 13 14 13 13 19 22 22 23 24 25 25 26 26 25
10 10 9 9 12 13 16 19 18 20 22 18 18 18 18 16 17 17 15 16 16 14 15 17 13 15 13 15 25 27 27 27 26 26 26 26 26 26
10 11 12 12 12 15 15 16 16 16 19 16 17 19 19 19 18 18 18 19 19 15 15 18 14 14 14 14 22 27 29 29 28 28 27 27 27 26
10 11 12 13 18 21 18 17 18 17 20 25 27 27 31 32 27 17 16 16 17 14 12 15 15 16 15 15 17 26 28 29 29 29 29 28 27 25
9 10 13 16 20 23 18 17 19 18 17 18 19 21 21 22 26 20 16 15 16 15 11 12 13 12 12 9 10 10 13 21 27 29 30 29 28 18
9 9 9 18 23 25 24 18 21 22 17 16 15 15 15 13 14 14 14 14 15 16 12 12 13 13 15 16 14 13 14 14 14 17 23 28 29 23
10 9 11 21 24 26 21 21 26 22 12 11 11 12 12 12 12 13 15 16 17 20 18 17 15 15 16 18 16 12 12 13 13 13 13 18 22 28
9 15 18 21 22 17 19 23 17 10 9 10 11 11 11 13 14 13 15 16 18 19 18 19 18 16 16 18 18 16 15 14 14 14 13 12 11 11
8 8 13 15 14 13 12 11 8 9 10 10 11 12 12 12 12 12 13 12 13 15 16 18 18 19 18 19 17 17 16 13 12 13 13 12 11 11
5 4 6 6 7 7 8 8 8 9 9 10 11 12 12 12 12 12 12 12 13 15 15 12 13 15 19 17 16 17 16 15 14 14 13 13 12 12
4 4 5 6 7 8 9 9 9 9 9 10 11 11 12 13 13 12 12 12 14 14 14 13 12 12 13 15 21 19 16 15 14 14 13 13 13 12
2 4 5 6 7 7 8 9 10 11 10 11 11 12 12 13 13 13 13 13 13 14 14 13 13 13 14 15 13 20 18 15 13 13 13 13 13 12
3 4 5 6 6 7 8 9 10 10 10 11 12 12 12 13 13 13 13 15 14 15 15 14 12 12 13 14 13 12 17 15 13 13 12 12 12 13
4 5 5 6 7 7 8 9 10 10 11 11 12 13 12 13 13 13 14 17 16 14 15 14 13 15 13 10 11 10 8 12 14 11 11 10 9 9
5 5 6 6 7 7 8 8 9 10 11 11 11 12 12 12 14 15 14 14 14 14 16 14 14 11 9 9 10 9 6 4 2 1 2 3 3 5
5 6 6 7 7 7 7 9 11 10 10 11 11 12 13 13 12 13 13 13 13 14 14 13 11 8 7 6 6 4 2 3 4 3 5 9 6 5
Wind_Direction
340 333 323 314 308 302 297 294 297 304 305 308 309 308 312 308 305 304 301 300 301 299 297 295 293 292 290 287 283 276 269 258 248 243 244 247 247 247
328 322 320 314 306 299 293 288 280 283 288 296 299 301 305 302 301 299 295 296 292 290 290 289 288 286 285 284 282 278 272 264 255 247 244 245 245 243
319 316 312 311 307 304 299 290 284 282 284 290 293 299 301 301 302 300 296 293 289 286 286 286 285 283 281 279 277 275 272 268 261 252 246 245 244 242
313 310 308 310 306 302 298 295 292 288 286 292 296 298 298 300 301 300 298 292 288 286 284 283 283 281 279 276 273 271 269 267 263 257 249 246 245 242
301 302 304 305 301 301 299 295 293 291 289 290 294 298 297 299 300 298 297 293 289 288 286 282 280 280 278 275 272 269 266 264 263 261 252 245 244 244
293 293 295 295 297 300 297 294 294 295 293 291 292 297 299 301 299 300 302 303 301 302 295 289 283 280 278 277 275 272 267 262 259 256 251 242 239 241
292 290 289 291 291 291 290 294 296 294 294 292 291 295 297 303 303 305 300 303 300 299 294 296 298 292 288 281 273 266 266 265 261 256 252 245 238 235
291 292 290 285 286 291 291 291 290 288 288 288 288 289 294 297 298 297 299 298 299 305 308 302 302 296 295 292 288 286 280 274 268 261 254 248 241 235
287 289 289 289 292 291 293 293 289 283 279 279 281 283 288 291 292 291 287 288 287 293 296 291 291 286 285 282 284 282 278 274 271 267 261 253 245 236
281 284 288 291 293 295 294 290 286 282 279 275 273 276 277 279 278 279 281 280 279 277 278 284 290 288 287 282 280 277 274 271 268 266 263 259 251 240
281 282 285 289 293 297 296 293 291 287 285 280 276 275 276 277 276 277 278 280 281 279 277 280 288 290 287 283 277 273 272 270 267 265 262 259 255 245
285 283 283 290 296 300 298 295 293 294 294 293 289 286 283 280 278 272 272 273 276 281 277 273 282 294 293 282 284 291 286 277 271 265 261 258 254 248
291 294 295 300 302 302 301 297 297 304 305 302 298 293 290 284 279 273 267 264 268 269 273 278 279 279 276 284 288 288 285 281 277 268 260 255 251 245
290 294 297 304 307 309 309 306 310 312 305 299 294 291 291 292 291 289 282 275 268 269 272 271 271 271 275 278 282 282 278 279 275 270 266 260 252 246
285 293 305 312 316 314 310 313 316 310 303 299 294 293 294 295 294 291 286 279 274 271 269 266 263 264 264 269 275 276 278 274 270 265 260 256 252 247
294 312 318 315 313 310 312 314 311 305 303 297 296 297 297 296 292 290 288 286 281 278 269 263 259 258 260 260 265 269 267 266 265 264 257 255 250 245
331 322 313 316 317 316 314 311 309 307 304 302 301 300 299 298 296 295 291 287 281 281 283 276 262 254 252 255 258 258 259 259 256 257 253 249 246 241
334 302 302 303 306 310 312 312 312 310 309 307 302 300 300 301 301 299 295 291 287 284 282 282 279 270 260 249 239 250 253 254 253 251 245 244 247 241
294 277 283 290 295 298 301 303 306 307 308 303 301 303 302 301 301 301 300 296 292 289 287 283 277 270 268 269 253 231 239 246 245 243 236 237 243 244
258 268 275 281 286 291 294 297 299 302 303 303 302 301 301 303 303 301 300 299 297 295 291 285 277 269 264 269 276 270 240 238 240 237 233 234 241 249
259 261 268 276 280 284 287 290 292 295 298 300 300 301 303 305 304 302 300 298 297 294 294 293 291 286 276 268 265 265 261 242 238 238 232 230 230 229
257 263 268 271 276 279 283 286 290 292 296 297 299 302 305 307 306 304 302 302 300 297 297 296 298 295 283 273 273 279 284 298 270 240 328 269 235 221
258 266 270 273 272 275 279 284 288 290 293 296 299 305 308 309 308 305 304 303 304 305 306 305 306 303 296 289 290 299 327 347 357 39 25 20 48 58